Regional Weather Roundup
Issued by NWS

Home | Current Version | Previous Version | Text Only | Print | Product List | Glossary Off
Versions: 1 2 3 4 5 6 7 8 9 10 11 12 13 14 15 16 17 18 19 20 21 22 23 24 25 26 27 28 29 30 31 32 33 34 35 36 37 38 39 40 41 42 43 44 45 46 47 48 49 50

000
ASUS43 KLOT 230803
RWRIL

ILLINOIS REGIONAL WEATHER ROUNDUP
NATIONAL WEATHER SERVICE CHICAGO/ROMEOVILLE IL
200 AM CST MON JAN 23 2017

NOTE: "FAIR" INDICATES FEW OR NO CLOUDS BELOW 12,000 FEET WITH NO
SIGNIFICANT WEATHER AND/OR OBSTRUCTIONS TO VISIBILITY.

* THESE STATIONS ARE NOT UNDER NWS QUALITY CONTROL. THEY ALSO MAY NOT
  REPORT WEATHER SUCH AS PRECIPITATION OR FOG.

ILZ001-002-007-009-015-016-024-230900-
NORTHWEST ILLINOIS

CITY           SKY/WX    TMP DP  RH WIND       PRES   REMARKS
MOLINE         CLOUDY    38  34  85 NW5       29.78R WCI  34
STERLING*      CLOUDY    37  36  96 NW9       29.76S WCI  30
SAVANNA*       CLOUDY    37  35  94 NW3       29.77R FOG
$$

ILZ003-004-008-010-011-017-018-230900-
NORTH CENTRAL ILLINOIS

CITY           SKY/WX    TMP DP  RH WIND       PRES   REMARKS
ROCKFORD       DRIZZLE   37  35  92 NW7       29.76R FOG     WCI  32
FREEPORT*      CLOUDY    36  35  97 NW5       29.77R FOG     WCI  32
ROCHELLE*      CLOUDY    36  35  96 N8        29.75R WCI  29
DE KALB*       CLOUDY    37  36  96 NW8       29.73R FOG     WCI  30
PERU*          CLOUDY    37  34  92 NW9       29.75R WCI  30
$$

ILZ005-006-012>014-019>023-230900-
NORTHEAST ILLINOIS

CITY           SKY/WX    TMP DP  RH WIND       PRES   REMARKS
CHICAGO-OHARE  CLOUDY    38  37  97 NW12      29.69S FOG     WCI  30
CHICAGO-MIDWAY CLOUDY    39  35  86 NW12      29.69S WCI  32
AURORA         CLOUDY    38  35  89 NW9       29.72R FOG     WCI  31
LANSING*       CLOUDY    37  37 100 N9G18     29.68S WCI  30
JOLIET*        CLOUDY    41  38  89 NW8       29.70S
WAUKEGAN       CLOUDY    37  36  96 NW6       29.71R FOG     WCI  32
DUPAGE AIRPORT CLOUDY    38  34  85 N8        29.71R WCI  32
KANKAKEE*      CLOUDY    40  37  90 NW10      29.68R
WHEELING       CLOUDY    37  36  96 NW8       29.72S FOG     WCI  31
MORRIS*        CLOUDY    38  36  91 N7        29.70S WCI  33
NORTHERLY ISL    N/A     37  36  96 NW5         N/A  WCI  33
$$

LMZ740>746-230900-
SOUTHERN LAKE MICHIGAN

STATION/POSITION SKY/WX   TEMP    WIND        PRES    VSBY  WAVE
                          AIR SEA DIR/SP/G                  HT/PER
                          (F)     (DEG/KT/KT) (MB)    (MI)  (FT/S)
HARRISON CRIB              36     340/ 16/ 18   N/A
BURNHAM HARBOR             37     320/ 11/ 14   N/A
CALUMET HARBOR             35     330/ 14/ 23 1005.0S
BURNS HARBOR               36     360/ 14/ 17 1005.4S
MICHIGAN CITY              37     330/ 19/ 20   N/A
$$

ILZ025>027-034>036-040-047-049-050-058-095>099-230900-
WEST-CENTRAL ILLINOIS

CITY           SKY/WX    TMP DP  RH WIND       PRES   REMARKS
QUINCY         CLOUDY    38  36  92 NW14      29.79R WCI  30
GALESBURG*     CLOUDY    36  36 100 NW9       29.77S FOG     WCI  29
MACOMB*        CLOUDY    37  36  98 NW13      29.80R FOG     WCI  28
JACKSONVILLE*  DRIZZLE   37  36  95 NW13      29.76R WCI  29
PITTSFIELD*    CLOUDY    38  37  93 NW10      29.78S WCI  31
$$

ILZ028>032-037-038-041>044-048-051>054-059>061-230900-
CENTRAL ILLINOIS

CITY           SKY/WX    TMP DP  RH WIND       PRES   REMARKS
BLOOMINGTON    CLOUDY    38  36  92 N15       29.70S WCI  29
DECATUR        CLOUDY    39  38  96 NW20G28   29.68R FOG     WCI  29
PEORIA         CLOUDY    38  36  92 N8        29.75R WCI  32
LACON*         CLOUDY    37  36  94 N7        29.75R WCI  32
LINCOLN*       CLOUDY    40  38  92 NW7       29.72S
SPRINGFIELD    CLOUDY    40  36  86 NW14      29.73S
TAYLORVILLE    CLOUDY    38  37  92 NW16G22   29.70R FOG     WCI  30
$$

ILZ033-039-045-046-055>057-062-063-230900-
EAST-CENTRAL ILLINOIS

CITY           SKY/WX    TMP DP  RH WIND       PRES   REMARKS
CHAMPAIGN      CLOUDY    39  37  92 NW21      29.65R FOG     WCI  29
RANTOUL*       CLOUDY    40  40  98 N14G21    29.66R FOG
MATTOON        CLOUDY    40  38  93 NW16      29.64R FOG
PARIS*         CLOUDY    41  41  98 N15       29.62R FOG
$$

ILZ079-100>102-230900-
SOUTHWEST ILLINOIS

CITY           SKY/WX    TMP DP  RH WIND       PRES   REMARKS
ALTON          CLOUDY    38  34  88 NW8G23    29.72S WCI  32
BELLEVILLE     CLOUDY    40  38  92 NW15G22   29.70R
CAHOKIA*       PTCLDY    40  34  79 NW15G24   29.73R
SPARTA*        CLOUDY    40  36  85 NW16G24   29.71R
$$

ILZ064>066-069>071-074>076-080>082-084>086-088>090-092>094-230900-
SOUTH-CENTRAL ILLINOIS

CITY           SKY/WX    TMP DP  RH WIND       PRES   REMARKS
CARBONDALE     CLOUDY    42  38  85 NW18G29   29.66R
CAIRO*         CLEAR     43  37  81 N17G30    29.61R
EFFINGHAM*     CLOUDY    41  40  97 NW17      29.66R FOG
MARION         CLOUDY    43  39  87 N9G17     29.65R
MT. VERNON     CLOUDY    41  37  86 VRB5      29.65R
CENTRALIA*     CLOUDY    42  39  90 NW15      29.65S
SALEM*         CLOUDY    42  38  86 NW21G26   29.66R FOG
METROPOLIS*    CLOUDY    44  39  81 N21G29    29.58S
$$

ILZ067-068-072-073-078-083-087-091-230900-
SOUTHEAST ILLINOIS

CITY           SKY/WX    TMP DP  RH WIND       PRES   REMARKS
LAWRENCEVILLE  CLOUDY    44  43  96 NW20      29.58R
FLORA*         CLOUDY    43  40  88 NW13      29.64R
FAIRFIELD*     CLOUDY    43  40  88 NW7       29.61R
HARRISBURG*    CLOUDY    44  40  87 NW12G20   29.62R
ROBINSON*      CLOUDY    43  41  93 N12       29.60R
CARMI*         CLOUDY    46  43  90 NW20G28   29.57R FOG
$$

ABBREVIATIONS USED IN REMARKS
   TC - TEMPERATURE IN CELSIUS
  WCI - WIND CHILL INDEX
   HX - HEAT INDEX
  VSB - VISIBILITY
$$





USA.gov is the U.S. government's official web portal to all federal, state and local government web resources and services.